TimeEST,TemperatureF,Dew PointF,Humidity,Sea Level PressureIn,VisibilityMPH,Wind Direction,Wind SpeedMPH,Gust SpeedMPH,PrecipitationIn,Events,Conditions,WindDirDegrees,DateUTC
12:54 AM,35.1,25.0,67,29.81,8.0,West,17.3,-,0.00,Snow,Light Snow,260,2013-01-01 05:54:00
1:54 AM,35.1,25.0,67,29.81,6.0,West,13.8,-,0.00,Snow,Light Snow,280,2013-01-01 06:54:00
2:00 AM,33.8,26.6,75,29.82,2.0,WNW,16.1,23.0,0.00,Snow,Light Snow,300,2013-01-01 07:00:00
2:22 AM,33.8,28.4,81,29.83,5.0,West,10.4,-,0.01,Snow,Light Snow,270,2013-01-01 07:22:00
2:54 AM,33.1,27.0,78,29.85,7.0,West,12.7,-,0.02,Snow,Light Snow,280,2013-01-01 07:54:00
3:54 AM,32.0,24.1,73,29.87,9.0,WNW,11.5,-,0.00,Snow,Light Snow,300,2013-01-01 08:54:00
4:54 AM,32.0,19.9,61,29.88,9.0,WNW,13.8,-,0.00,Snow,Light Snow,290,2013-01-01 09:54:00
5:35 AM,30.2,21.2,69,29.88,9.0,NNW,12.7,-,0.00,Snow,Light Snow,330,2013-01-01 10:35:00
5:47 AM,30.2,21.2,69,29.88,9.0,NNW,15.0,-,0.00,Snow,Light Snow,330,2013-01-01 10:47:00
5:54 AM,30.0,21.0,69,29.88,8.0,NNW,15.0,-,0.00,Snow,Light Snow,330,2013-01-01 10:54:00
6:12 AM,28.4,19.4,69,29.89,8.0,NW,11.5,-,0.00,Snow,Light Snow,320,2013-01-01 11:12:00
6:21 AM,28.4,19.4,69,29.90,9.0,NW,11.5,-,0.00,Snow,Light Snow,310,2013-01-01 11:21:00
6:54 AM,28.9,19.0,67,29.91,9.0,NW,6.9,-,0.00,Snow,Light Snow,320,2013-01-01 11:54:00
7:02 AM,28.4,19.4,69,29.91,9.0,NNW,8.1,-,0.00,Snow,Light Snow,340,2013-01-01 12:02:00
7:54 AM,27.0,18.0,69,29.92,9.0,NNW,12.7,-,0.00,Snow,Light Snow,330,2013-01-01 12:54:00
8:54 AM,26.1,16.0,66,29.94,6.0,NW,15.0,-,0.00,Snow,Light Snow,320,2013-01-01 13:54:00
9:43 AM,24.8,15.8,69,29.96,2.5,NW,13.8,-,0.00,Snow,Light Snow,310,2013-01-01 14:43:00
9:54 AM,25.0,17.1,72,29.96,2.5,WNW,13.8,-,0.00,Snow,Light Snow,300,2013-01-01 14:54:00
10:54 AM,24.1,16.0,71,29.98,2.5,NW,13.8,-,0.00,Snow,Light Snow,310,2013-01-01 15:54:00
11:45 AM,21.2,12.2,68,29.96,5.0,WNW,16.1,24.2,0.00,Snow,Light Snow,300,2013-01-01 16:45:00
11:54 AM,23.0,12.9,65,29.96,6.0,WNW,16.1,-,0.00,Snow,Light Snow,290,2013-01-01 16:54:00
12:20 PM,24.8,12.2,59,29.96,10.0,WNW,12.7,-,0.00,,Mostly Cloudy,300,2013-01-01 17:20:00
12:54 PM,23.0,12.0,63,29.95,9.0,WNW,13.8,23.0,0.00,Snow,Light Snow,300,2013-01-01 17:54:00
1:54 PM,23.0,9.0,55,29.94,10.0,WNW,16.1,-,0.00,,Mostly Cloudy,300,2013-01-01 18:54:00
2:54 PM,23.0,9.0,55,29.95,10.0,WNW,13.8,-,N/A,,Scattered Clouds,300,2013-01-01 19:54:00
3:54 PM,21.9,8.1,55,29.97,10.0,WNW,11.5,-,N/A,,Scattered Clouds,290,2013-01-01 20:54:00
4:54 PM,19.9,8.1,60,29.98,10.0,West,5.8,-,N/A,,Scattered Clouds,280,2013-01-01 21:54:00
5:54 PM,18.0,7.0,62,30.01,10.0,West,8.1,-,0.00,,Mostly Cloudy,260,2013-01-01 22:54:00
6:54 PM,19.0,8.1,62,30.03,10.0,WSW,11.5,-,N/A,,Scattered Clouds,250,2013-01-01 23:54:00
7:54 PM,19.0,8.1,62,30.01,10.0,West,10.4,-,0.00,Snow,Light Snow,260,2013-01-02 00:54:00
8:54 PM,18.0,8.1,65,30.01,9.0,SW,9.2,-,0.00,Snow,Light Snow,230,2013-01-02 01:54:00
9:54 PM,19.0,10.0,68,30.02,8.0,WSW,10.4,-,0.00,Snow,Light Snow,240,2013-01-02 02:54:00
10:54 PM,19.0,12.9,77,30.02,3.0,West,8.1,-,0.00,Snow,Light Snow,260,2013-01-02 03:54:00
11:54 PM,19.0,14.0,81,30.02,4.0,WSW,6.9,-,0.00,Snow,Light Snow,250,2013-01-02 04:54:00